Satellite: ANTELSAT Catalog number: 40034 Epoch time: 15001.88713178 Element set: 580 Inclination: 097.9621 deg RA of node: 257.4714 deg Eccentricity: 0.0060027 Arg of perigee: 293.0488 deg Mean anomaly: 066.4396 deg Mean motion: 14.72043353 rev/day Decay rate: 2.980e-05 rev/day^2 Epoch rev: 2882 Checksum: 300
/EX SB KEPS @ AMSAT $ORB15001.W Orbital Elements 15001.WEATHER
HR AMSAT ORBITAL ELEMENTS FOR WEATHER SATELLITES FROM WA5QGD FORT WORTH,TX January 1, 2015 BID: ORB15001.W TO ALL RADIO AMATEURS BT
Satellite: MET-2/21 Catalog number: 22782 Epoch time: 15001.19162833 Element set: 263 Inclination: 082.5482 deg RA of node: 016.1890 deg Eccentricity: 0.0023464 Arg of perigee: 071.7006 deg Mean anomaly: 340.4547 deg Mean motion: 13.83755783 rev/day Decay rate: 3.3e-07 rev/day^2 Epoch rev: 7750 Checksum: 284
Satellite: OKEAN-4 Catalog number: 23317 Epoch time: 15001.09773845 Element set: 748 Inclination: 082.5374 deg RA of node: 242.3050 deg Eccentricity: 0.0020930 Arg of perigee: 159.7187 deg Mean anomaly: 356.2682 deg Mean motion: 14.86177315 rev/day Decay rate: 1.001e-05 rev/day^2 Epoch rev: 9249 Checksum: 296
Satellite: NOAA-14 Catalog number: 23455 Epoch time: 15001.56848304 Element set: 37 Inclination: 098.7653 deg RA of node: 086.3670 deg Eccentricity: 0.0009577 Arg of perigee: 188.9083 deg Mean anomaly: 283.7616 deg Mean motion: 14.14013417 rev/day Decay rate: 5.7e-07 rev/day^2 Epoch rev: 3198 Checksum: 315
Satellite: NOAA-15 Catalog number: 25338 Epoch time: 15001.88551451 Element set: 477 Inclination: 098.7645 deg RA of node: 000.4931 deg Eccentricity: 0.0009947 Arg of perigee: 294.0101 deg Mean anomaly: 066.0523 deg Mean motion: 14.25541830 rev/day Decay rate: 3.25e-06 rev/day^2 Epoch rev: 86535 Checksum: 293
Satellite: RESURS Catalog number: 25394 Epoch time: 15001.53481613 Element set: 844 Inclination: 098.4432 deg RA of node: 322.8404 deg Eccentricity: 0.0002269 Arg of perigee: 068.1828 deg Mean anomaly: 043.7184 deg Mean motion: 14.24431693 rev/day Decay rate: 4.8e-07 rev/day^2 Epoch rev: 85655 Checksum: 297
Satellite: FENGYUN1 Catalog number: 25730 Epoch time: 14365.73547547 Element set: 332 Inclination: 098.9298 deg RA of node: 325.8521 deg Eccentricity: 0.0019970 Arg of perigee: 274.6694 deg Mean anomaly: 206.6982 deg Mean motion: 14.12801368 rev/day Decay rate: 2.839e-05 rev/day^2 Epoch rev: 80540 Checksum: 336
Satellite: OKEAN-0 Catalog number: 25860 Epoch time: 15001.60648137 Element set: 456 Inclination: 098.0722 deg RA of node: 329.6467 deg Eccentricity: 0.0001922 Arg of perigee: 111.6782 deg Mean anomaly: 307.2619 deg Mean motion: 14.75709682 rev/day Decay rate: 7.44e-06 rev/day^2 Epoch rev: 83141 Checksum: 302
Satellite: NOAA-16 Catalog number: 26536 Epoch time: 15001.84105631 Element set: 975 Inclination: 098.9661 deg RA of node: 067.8087 deg Eccentricity: 0.0010287 Arg of perigee: 348.5000 deg Mean anomaly: 011.6415 deg Mean motion: 14.13067337 rev/day Decay rate: 4.2e-07 rev/day^2 Epoch rev: 73616 Checksum: 291
Satellite: NOAA-17 Catalog number: 27453 Epoch time: 15001.86283351 Element set: 867 Inclination: 098.3261 deg RA of node: 356.2317 deg Eccentricity: 0.0010990 Arg of perigee: 315.9746 deg Mean anomaly: 044.1044 deg Mean motion: 14.24839293 rev/day Decay rate: 1.26e-06 rev/day^2 Epoch rev: 65097 Checksum: 311
Satellite: NOAA-18 Catalog number: 28654 Epoch time: 15001.91414368 Element set: 388 Inclination: 099.1699 deg RA of node: 350.6323 deg Eccentricity: 0.0015225 Arg of perigee: 067.7572 deg Mean anomaly: 292.5690 deg Mean motion: 14.12128153 rev/day Decay rate: 1.29e-06 rev/day^2 Epoch rev: 49561 Checksum: 318
Satellite: NOAA-19 Catalog number: 33591 Epoch time: 15001.84390441 Element set: 519 Inclination: 098.9684 deg RA of node: 311.5179 deg Eccentricity: 0.0013478 Arg of perigee: 280.5294 deg Mean anomaly: 079.4828 deg Mean motion: 14.11845207 rev/day Decay rate: 2.62e-06 rev/day^2 Epoch rev: 30400 Checksum: 308
/EX SB KEPS @ AMSAT $ORB15001.M Orbital Elements 15001.MISC
HR AMSAT ORBITAL ELEMENTS FOR MANNED AND MISCELLANEOUS SATELLITES FROM WA5QGD FORT WORTH,TX January 1, 2015 BID: ORB15001.M TO ALL RADIO AMATEURS BT
Satellite: HUBBLE Catalog number: 20580 Epoch time: 14365.90106583 Element set: 191 Inclination: 028.4687 deg RA of node: 176.5490 deg Eccentricity: 0.0002625 Arg of perigee: 243.1761 deg Mean anomaly: 246.5781 deg Mean motion: 15.06549281 rev/day Decay rate: 2.059e-05 rev/day^2 Epoch rev: 15455 Checksum: 301
Satellite: ISS Catalog number: 25544 Epoch time: 15001.90620712 Element set: 664 Inclination: 051.6456 deg RA of node: 193.9106 deg Eccentricity: 0.0007121 Arg of perigee: 197.4499 deg Mean anomaly: 315.2103 deg Mean motion: 15.52915813 rev/day Decay rate: 1.2362e-04 rev/day^2 Epoch rev: 92216 Checksum: 276
Satellite: CO-58 Catalog number: 28895 Epoch time: 14365.51388300 Element set: 958 Inclination: 097.8213 deg RA of node: 197.0606 deg Eccentricity: 0.0018508 Arg of perigee: 106.9905 deg Mean anomaly: 253.3328 deg Mean motion: 14.62384456 rev/day Decay rate: 9.98e-06 rev/day^2 Epoch rev: 48908 Checksum: 359
Satellite: FALCON Catalog number: 30776 Epoch time: 14365.38522416 Element set: 39 Inclination: 035.4294 deg RA of node: 329.9439 deg Eccentricity: 0.0004493 Arg of perigee: 242.6460 deg Mean anomaly: 251.8088 deg Mean motion: 15.20354865 rev/day Decay rate: 1.2016e-04 rev/day^2 Epoch rev: 43071 Checksum: 298
Satellite: MAST Catalog number: 31126 Epoch time: 15001.19968846 Element set: 241 Inclination: 097.9395 deg RA of node: 337.0685 deg Eccentricity: 0.0092894 Arg of perigee: 096.8179 deg Mean anomaly: 331.5239 deg Mean motion: 14.55701136 rev/day Decay rate: 7.60e-06 rev/day^2 Epoch rev: 40919 Checksum: 328
Satellite: CAPE1 Catalog number: 31130 Epoch time: 14365.48660679 Element set: 246 Inclination: 097.9611 deg RA of node: 333.3133 deg Eccentricity: 0.0099410 Arg of perigee: 117.7382 deg Mean anomaly: 243.3941 deg Mean motion: 14.55016710 rev/day Decay rate: 9.57e-06 rev/day^2 Epoch rev: 40849 Checksum: 301
Satellite: COMPASS Catalog number: 32787 Epoch time: 15001.67589927 Element set: 141 Inclination: 097.6763 deg RA of node: 054.3924 deg Eccentricity: 0.0012201 Arg of perigee: 241.5613 deg Mean anomaly: 118.4376 deg Mean motion: 14.89450061 rev/day Decay rate: 4.207e-05 rev/day^2 Epoch rev: 36171 Checksum: 293
Satellite: AAUSAT2 Catalog number: 32788 Epoch time: 15001.10701337 Element set: 127 Inclination: 097.6777 deg RA of node: 055.0874 deg Eccentricity: 0.0011711 Arg of perigee: 241.4945 deg Mean anomaly: 118.5094 deg Mean motion: 14.90338008 rev/day Decay rate: 3.530e-05 rev/day^2 Epoch rev: 36170 Checksum: 281
Satellite: DO-64 Catalog number: 32789 Epoch time: 15001.17401203 Element set: 174 Inclination: 097.6969 deg RA of node: 063.7650 deg Eccentricity: 0.0010959 Arg of perigee: 220.7710 deg Mean anomaly: 201.5547 deg Mean motion: 14.96801580 rev/day Decay rate: 8.760e-05 rev/day^2 Epoch rev: 36207 Checksum: 306
Satellite: CO-66 Catalog number: 32791 Epoch time: 15001.42377469 Element set: 124 Inclination: 097.6754 deg RA of node: 052.4618 deg Eccentricity: 0.0012900 Arg of perigee: 248.2127 deg Mean anomaly: 111.7717 deg Mean motion: 14.87790329 rev/day Decay rate: 1.942e-05 rev/day^2 Epoch rev: 36151 Checksum: 308
Satellite: RS-30 Catalog number: 32953 Epoch time: 15001.79077377 Element set: 609 Inclination: 082.5047 deg RA of node: 077.7271 deg Eccentricity: 0.0019405 Arg of perigee: 084.8579 deg Mean anomaly: 275.4715 deg Mean motion: 12.43054557 rev/day Decay rate: 1.0e-07 rev/day^2 Epoch rev: 29993 Checksum: 322
Satellite: METEOR-M Catalog number: 35865 Epoch time: 15001.72911874 Element set: 216 Inclination: 098.5231 deg RA of node: 047.8477 deg Eccentricity: 0.0001749 Arg of perigee: 234.7370 deg Mean anomaly: 125.3645 deg Mean motion: 14.21975051 rev/day Decay rate: 1.56e-06 rev/day^2 Epoch rev: 27455 Checksum: 300
Satellite: RS-38 Catalog number: 35869 Epoch time: 15001.79450233 Element set: 124 Inclination: 098.5163 deg RA of node: 047.6213 deg Eccentricity: 0.0003732 Arg of perigee: 236.3050 deg Mean anomaly: 123.7756 deg Mean motion: 14.22260352 rev/day Decay rate: 8.6e-07 rev/day^2 Epoch rev: 27460 Checksum: 280
Satellite: JUGNU Catalog number: 37839 Epoch time: 14365.72683362 Element set: 764 Inclination: 019.9612 deg RA of node: 137.6328 deg Eccentricity: 0.0019240 Arg of perigee: 001.1128 deg Mean anomaly: 132.2659 deg Mean motion: 14.12400361 rev/day Decay rate: 4.24e-06 rev/day^2 Epoch rev: 16651 Checksum: 278
Satellite: SRMSAT Catalog number: 37841 Epoch time: 14365.71458251 Element set: 768 Inclination: 019.9712 deg RA of node: 161.0073 deg Eccentricity: 0.0011958 Arg of perigee: 293.9696 deg Mean anomaly: 190.4777 deg Mean motion: 14.10425460 rev/day Decay rate: 3.77e-06 rev/day^2 Epoch rev: 16627 Checksum: 321
Satellite: RAX-2 Catalog number: 37853 Epoch time: 15001.20390247 Element set: 2 Inclination: 101.7038 deg RA of node: 130.6886 deg Eccentricity: 0.0205676 Arg of perigee: 202.8743 deg Mean anomaly: 232.5162 deg Mean motion: 14.92964641 rev/day Decay rate: 1.3257e-04 rev/day^2 Epoch rev: 17216 Checksum: 278
Satellite: AUBIESAT Catalog number: 37854 Epoch time: 14365.93682142 Element set: 1 Inclination: 101.7094 deg RA of node: 132.9233 deg Eccentricity: 0.0202386 Arg of perigee: 199.5135 deg Mean anomaly: 280.9675 deg Mean motion: 14.94701944 rev/day Decay rate: 1.6039e-04 rev/day^2 Epoch rev: 17220 Checksum: 299
Satellite: HRBE Catalog number: 37855 Epoch time: 15001.34099337 Element set: 22 Inclination: 101.7076 deg RA of node: 132.5406 deg Eccentricity: 0.0205327 Arg of perigee: 200.4564 deg Mean anomaly: 158.8330 deg Mean motion: 14.93771542 rev/day Decay rate: 1.4374e-04 rev/day^2 Epoch rev: 17221 Checksum: 270
